When you browse on this site, cookies collect data to enhance your experience and personalize the content and advertising you see.
Visit our Privacy Policy to learn more. By continuing to use the site, you agree to this use of cookies and data.
  • în România
  • Lista ţărilor
  • Pe 7 zile
  • Temperatura apei
  • Meteo pe hartă
  • Widget-uri
  • user-avatar
    Intrare

    Meteo pe oră la Ghanzi

    Astăzi, 20 Ianuarie, Luni

    Timp Temperatura Precipitaţii Vânt Presiune Umiditate
    00:00 +8°C° 0 mm 4 m/s 721 mmHg 49%
    01:00 +8°C° 0 mm 3 m/s 721 mmHg 52%
    02:00 +8°C° 0 mm 3 m/s 721 mmHg 54%
    03:00 +8°C° 0 mm 3 m/s 721 mmHg 56%
    04:00 +7°C° 0 mm 3 m/s 721 mmHg 59%
    05:00 +7°C° 0 mm 3 m/s 721 mmHg 60%
    06:00 +7°C° 0 mm 3 m/s 722 mmHg 61%
    07:00 +7°C° 0 mm 3 m/s 722 mmHg 61%
    08:00 +10°C° 0 mm 4 m/s 722 mmHg 53%
    09:00 +12°C° 0 mm 4 m/s 723 mmHg 46%
    10:00 +14°C° 0 mm 5 m/s 723 mmHg 38%
    11:00 +16°C° 0 mm 5 m/s 722 mmHg 33%
    12:00 +19°C° 0 mm 4 m/s 722 mmHg 28%
    13:00 +20°C° 0 mm 4 m/s 721 mmHg 22%
    14:00 +20°C° 0 mm 4 m/s 721 mmHg 21%
    15:00 +21°C° 0 mm 4 m/s 721 mmHg 20%
    16:00 +21°C° 0 mm 4 m/s 721 mmHg 18%
    17:00 +19°C° 0 mm 4 m/s 721 mmHg 22%
    18:00 +16°C° 0 mm 3 m/s 721 mmHg 25%
    19:00 +13°C° 0 mm 3 m/s 721 mmHg 29%
    20:00 +13°C° 0 mm 3 m/s 721 mmHg 31%
    21:00 +12°C° 0 mm 4 m/s 722 mmHg 33%
    22:00 +11°C° 0 mm 4 m/s 722 mmHg 35%
    23:00 +11°C° 0 mm 4 m/s 722 mmHg 37%

    Mâine, 21 Ianuarie, Marţi

    Timp Temperatura Precipitaţii Vânt Presiune Umiditate
    00:00 +10°C° 0 mm 4 m/s 722 mmHg 40%
    01:00 +10°C° 0 mm 4 m/s 722 mmHg 42%
    02:00 +8°C° 0 mm 4 m/s 721 mmHg 44%
    03:00 +8°C° 0 mm 4 m/s 721 mmHg 46%
    04:00 +7°C° 0 mm 4 m/s 721 mmHg 49%
    05:00 +8°C° 0 mm 3 m/s 722 mmHg 51%
    06:00 +8°C° 0 mm 3 m/s 722 mmHg 53%
    07:00 +7°C° 0 mm 3 m/s 722 mmHg 55%
    08:00 +10°C° 0 mm 3 m/s 723 mmHg 46%
    09:00 +12°C° 0 mm 3 m/s 723 mmHg 38%
    10:00 +16°C° 0 mm 3 m/s 724 mmHg 30%
    11:00 +18°C° 0 mm 4 m/s 723 mmHg 27%
    12:00 +19°C° 0 mm 4 m/s 722 mmHg 23%
    13:00 +21°C° 0 mm 5 m/s 721 mmHg 20%
    14:00 +21°C° 0 mm 5 m/s 721 mmHg 19%
    15:00 +21°C° 0 mm 5 m/s 721 mmHg 18%
    16:00 +21°C° 0 mm 6 m/s 721 mmHg 17%
    17:00 +19°C° 0 mm 5 m/s 721 mmHg 19%
    18:00 +16°C° 0 mm 5 m/s 721 mmHg 22%
    19:00 +14°C° 0 mm 5 m/s 720 mmHg 25%
    20:00 +13°C° 0 mm 5 m/s 721 mmHg 27%
    21:00 +12°C° 0 mm 5 m/s 721 mmHg 30%
    22:00 +12°C° 0 mm 5 m/s 721 mmHg 33%
    23:00 +10°C° 0 mm 5 m/s 721 mmHg 36%

    Poimâine, 22 Ianuarie, Miercuri

    Timp Temperatura Precipitaţii Vânt Presiune Umiditate
    00:00 +9°C° 0 mm 5 m/s 721 mmHg 40%
    01:00 +10°C° 0 mm 4 m/s 721 mmHg 44%
    02:00 +8°C° 0 mm 4 m/s 721 mmHg 47%
    03:00 +7°C° 0 mm 4 m/s 720 mmHg 49%
    04:00 +6°C° 0 mm 4 m/s 720 mmHg 52%
    05:00 +6°C° 0 mm 4 m/s 721 mmHg 54%
    06:00 +6°C° 0 mm 4 m/s 722 mmHg 55%
    07:00 +6°C° 0 mm 4 m/s 723 mmHg 56%
    08:00 +8°C° 0 mm 4 m/s 723 mmHg 48%
    09:00 +11°C° 0 mm 4 m/s 723 mmHg 39%
    10:00 +13°C° 0 mm 5 m/s 723 mmHg 31%
    11:00 +15°C° 0 mm 4 m/s 723 mmHg 26%
    12:00 +18°C° 0 mm 4 m/s 722 mmHg 22%
    13:00 +19°C° 0 mm 4 m/s 721 mmHg 17%
    14:00 +19°C° 0 mm 5 m/s 721 mmHg 16%
    15:00 +19°C° 0 mm 5 m/s 721 mmHg 15%
    16:00 +20°C° 0 mm 6 m/s 720 mmHg 15%
    17:00 +17°C° 0 mm 5 m/s 720 mmHg 18%
    18:00 +14°C° 0 mm 5 m/s 720 mmHg 21%
    19:00 +12°C° 0 mm 5 m/s 721 mmHg 25%
    20:00 +12°C° 0 mm 5 m/s 721 mmHg 28%
    21:00 +10°C° 0 mm 5 m/s 721 mmHg 30%
    22:00 +9°C° 0 mm 5 m/s 721 mmHg 33%
    23:00 +8°C° 0 mm 5 m/s 721 mmHg 36%

    23 Ianuarie, Joi

    Timp Temperatura Precipitaţii Vânt Presiune Umiditate
    00:00 +7°C° 0 mm 4 m/s 721 mmHg 39%
    01:00 +6°C° 0 mm 4 m/s 721 mmHg 41%
    02:00 +6°C° 0 mm 4 m/s 721 mmHg 44%
    03:00 +5°C° 0 mm 4 m/s 721 mmHg 46%
    04:00 +4°C° 0 mm 4 m/s 721 mmHg 48%
    05:00 +4°C° 0 mm 4 m/s 721 mmHg 49%
    06:00 +4°C° 0 mm 4 m/s 722 mmHg 49%
    07:00 +4°C° 0 mm 4 m/s 722 mmHg 50%
    08:00 +7°C° 0 mm 4 m/s 722 mmHg 43%
    09:00 +9°C° 0 mm 5 m/s 723 mmHg 36%
    10:00 +12°C° 0 mm 5 m/s 723 mmHg 29%
    11:00 +14°C° 0 mm 4 m/s 722 mmHg 25%
    12:00 +15°C° 0 mm 4 m/s 722 mmHg 21%
    13:00 +18°C° 0 mm 3 m/s 721 mmHg 18%
    14:00 +18°C° 0 mm 4 m/s 721 mmHg 17%
    15:00 +18°C° 0 mm 4 m/s 721 mmHg 16%
    16:00 +17°C° 0 mm 5 m/s 721 mmHg 15%
    17:00 +15°C° 0 mm 4 m/s 721 mmHg 17%
    18:00 +13°C° 0 mm 4 m/s 721 mmHg 20%
    19:00 +11°C° 0 mm 4 m/s 721 mmHg 22%
    20:00 +11°C° 0 mm 4 m/s 721 mmHg 24%
    21:00 +10°C° 0 mm 4 m/s 722 mmHg 27%
    22:00 +8°C° 0 mm 4 m/s 722 mmHg 29%
    23:00 +8°C° 0 mm 4 m/s 721 mmHg 31%

    24 Ianuarie, Vineri

    Timp Temperatura Precipitaţii Vânt Presiune Umiditate
    00:00 +7°C° 0 mm 4 m/s 721 mmHg 33%
    01:00 +6°C° 0 mm 4 m/s 721 mmHg 35%
    02:00 +6°C° 0 mm 4 m/s 721 mmHg 37%
    03:00 +7°C° 0 mm 3 m/s 721 mmHg 38%
    04:00 +5°C° 0 mm 3 m/s 721 mmHg 40%
    05:00 +5°C° 0 mm 3 m/s 721 mmHg 41%
    06:00 +5°C° 0 mm 3 m/s 722 mmHg 43%
    07:00 +5°C° 0 mm 3 m/s 722 mmHg 44%
    08:00 +7°C° 0 mm 4 m/s 723 mmHg 38%
    09:00 +10°C° 0 mm 5 m/s 723 mmHg 32%
    10:00 +13°C° 0 mm 5 m/s 723 mmHg 27%
    11:00 +15°C° 0 mm 5 m/s 723 mmHg 24%
    12:00 +17°C° 0 mm 5 m/s 722 mmHg 20%
    13:00 +19°C° 0 mm 5 m/s 722 mmHg 17%
    14:00 +19°C° 0 mm 5 m/s 721 mmHg 17%
    15:00 +19°C° 0 mm 5 m/s 721 mmHg 17%
    16:00 +20°C° 0 mm 5 m/s 721 mmHg 16%
    17:00 +17°C° 0 mm 5 m/s 721 mmHg 19%
    18:00 +15°C° 0 mm 5 m/s 721 mmHg 22%
    19:00 +13°C° 0 mm 4 m/s 721 mmHg 26%
    20:00 +12°C° 0 mm 5 m/s 721 mmHg 28%
    21:00 +10°C° 0 mm 5 m/s 722 mmHg 30%
    22:00 +9°C° 0 mm 5 m/s 722 mmHg 32%
    23:00 +10°C° 0 mm 4 m/s 722 mmHg 35%

    25 Ianuarie, Sâmbătă

    Timp Temperatura Precipitaţii Vânt Presiune Umiditate
    00:00 +8°C° 0 mm 4 m/s 722 mmHg 37%
    01:00 +7°C° 0 mm 4 m/s 721 mmHg 40%
    02:00 +7°C° 0 mm 4 m/s 721 mmHg 42%
    03:00 +6°C° 0 mm 4 m/s 721 mmHg 44%
    04:00 +6°C° 0 mm 4 m/s 721 mmHg 46%
    05:00 +6°C° 0 mm 4 m/s 722 mmHg 47%
    06:00 +6°C° 0 mm 4 m/s 722 mmHg 48%
    07:00 +5°C° 0 mm 4 m/s 723 mmHg 49%
    08:00 +8°C° 0 mm 4 m/s 723 mmHg 42%
    09:00 +12°C° 0 mm 4 m/s 723 mmHg 34%
    10:00 +14°C° 0 mm 4 m/s 723 mmHg 27%
    11:00 +17°C° 0 mm 4 m/s 723 mmHg 23%
    12:00 +19°C° 0 mm 4 m/s 722 mmHg 20%
    13:00 +20°C° 0 mm 4 m/s 722 mmHg 17%
    14:00 +21°C° 0 mm 4 m/s 721 mmHg 16%
    15:00 +21°C° 0 mm 4 m/s 721 mmHg 15%
    16:00 +21°C° 0 mm 4 m/s 721 mmHg 14%
    17:00 +19°C° 0 mm 4 m/s 721 mmHg 16%
    18:00 +17°C° 0 mm 4 m/s 721 mmHg 19%
    19:00 +13°C° 0 mm 4 m/s 721 mmHg 21%
    20:00 +12°C° 0 mm 4 m/s 721 mmHg 22%
    21:00 +11°C° 0 mm 4 m/s 721 mmHg 23%
    22:00 +11°C° 0 mm 4 m/s 721 mmHg 24%
    23:00 +10°C° 0 mm 4 m/s 721 mmHg 26%
    Arată mai mult